Time,TemperatureF,DewpointF,PressureIn,WindDirection,WindDirectionDegrees,WindSpeedMPH,WindSpeedGustMPH,Humidity,HourlyPrecipIn,Conditions,Clouds,dailyrainin,SoftwareType,DateUTC
2013-03-07 00:01:00,51.9,50.2,30.07,NNW,342,0.0,0.0,94,0.00,,,0.00,Wunderground v.1.13,2013-03-07 08:01:00,
2013-03-07 00:11:00,52.0,50.3,30.07,NNW,341,0.0,0.0,94,0.00,,,0.00,Wunderground v.1.13,2013-03-07 08:11:00,
2013-03-07 00:16:00,52.0,50.3,30.06,NNW,342,0.0,0.0,94,0.00,,,0.00,Wunderground v.1.13,2013-03-07 08:16:00,
2013-03-07 00:21:00,52.0,50.3,30.06,NNW,341,0.0,0.0,94,0.00,,,0.00,Wunderground v.1.13,2013-03-07 08:21:00,
2013-03-07 00:31:00,52.0,50.3,30.06,NNW,342,0.0,0.0,94,0.00,,,0.00,Wunderground v.1.13,2013-03-07 08:31:00,
2013-03-07 00:36:00,52.0,50.3,30.06,NNW,342,0.0,0.0,94,0.00,,,0.00,Wunderground v.1.13,2013-03-07 08:36:00,
2013-03-07 00:41:00,52.0,50.3,30.06,NNW,342,0.0,0.0,94,0.00,,,0.00,Wunderground v.1.13,2013-03-07 08:41:00,
2013-03-07 00:46:00,52.1,50.4,30.06,NNW,342,0.0,0.0,94,0.00,,,0.00,Wunderground v.1.13,2013-03-07 08:46:00,
2013-03-07 00:51:00,52.1,50.4,30.06,NNW,342,0.0,0.0,94,0.00,,,0.00,Wunderground v.1.13,2013-03-07 08:51:00,
2013-03-07 00:56:00,52.1,50.4,30.06,NNW,342,0.0,0.0,94,0.00,,,0.00,Wunderground v.1.13,2013-03-07 08:56:00,
2013-03-07 01:01:00,52.1,50.4,30.06,NNW,341,0.0,0.0,94,0.00,,,0.00,Wunderground v.1.13,2013-03-07 09:01:00,
2013-03-07 01:11:00,52.2,50.5,30.06,NNW,341,0.0,0.0,94,0.00,,,0.00,Wunderground v.1.13,2013-03-07 09:11:00,
2013-03-07 01:21:00,52.2,50.5,30.06,NNW,342,0.0,0.0,94,0.00,,,0.00,Wunderground v.1.13,2013-03-07 09:21:00,
2013-03-07 01:26:00,52.2,50.5,30.06,NNW,342,0.0,0.0,94,0.00,,,0.00,Wunderground v.1.13,2013-03-07 09:26:00,
2013-03-07 01:31:00,52.2,50.5,30.06,NNW,342,0.0,0.0,94,0.00,,,0.00,Wunderground v.1.13,2013-03-07 09:31:00,
2013-03-07 01:41:00,51.9,50.2,30.06,NNW,342,0.0,0.0,94,0.00,,,0.00,Wunderground v.1.13,2013-03-07 09:41:00,
2013-03-07 01:46:00,51.9,50.2,30.05,NNW,342,0.0,0.0,94,0.00,,,0.00,Wunderground v.1.13,2013-03-07 09:46:00,
2013-03-07 01:51:00,51.8,50.1,30.05,NNW,342,0.0,0.0,94,0.00,,,0.00,Wunderground v.1.13,2013-03-07 09:51:00,
2013-03-07 01:56:00,51.7,50.0,30.05,NNW,342,0.0,0.0,94,0.00,,,0.00,Wunderground v.1.13,2013-03-07 09:56:00,
2013-03-07 02:01:00,51.6,49.9,30.05,NNW,342,0.0,0.0,94,0.00,,,0.00,Wunderground v.1.13,2013-03-07 10:01:00,
2013-03-07 02:06:00,51.7,50.0,30.05,NNW,342,0.0,0.0,94,0.00,,,0.00,Wunderground v.1.13,2013-03-07 10:06:00,
2013-03-07 02:16:00,51.9,50.2,30.05,NNW,342,0.0,0.0,94,0.00,,,0.00,Wunderground v.1.13,2013-03-07 10:16:00,
2013-03-07 02:26:00,52.1,50.4,30.05,NNW,342,0.0,0.0,94,0.00,,,0.00,Wunderground v.1.13,2013-03-07 10:26:00,
2013-03-07 02:31:00,52.1,50.4,30.05,NNW,342,0.0,0.0,94,0.00,,,0.00,Wunderground v.1.13,2013-03-07 10:31:00,
2013-03-07 02:36:00,52.0,50.3,30.04,NNW,342,0.0,0.0,94,0.00,,,0.00,Wunderground v.1.13,2013-03-07 10:36:00,
2013-03-07 02:41:00,52.0,50.3,30.04,NNW,341,0.0,0.0,94,0.00,,,0.00,Wunderground v.1.13,2013-03-07 10:41:00,
2013-03-07 02:46:00,52.0,50.3,30.04,NNW,341,0.0,0.0,94,0.00,,,0.00,Wunderground v.1.13,2013-03-07 10:46:00,
2013-03-07 02:51:00,51.9,50.2,30.04,NNW,341,0.0,0.0,94,0.00,,,0.00,Wunderground v.1.13,2013-03-07 10:51:00,
2013-03-07 02:56:00,51.9,50.2,30.04,NNW,341,0.0,0.0,94,0.00,,,0.00,Wunderground v.1.13,2013-03-07 10:56:00,
2013-03-07 03:06:00,51.6,49.9,30.04,NNW,341,0.0,0.0,94,0.00,,,0.00,Wunderground v.1.13,2013-03-07 11:06:00,
2013-03-07 03:11:00,51.5,49.8,30.04,NNW,341,0.0,0.0,94,0.00,,,0.00,Wunderground v.1.13,2013-03-07 11:11:00,
2013-03-07 03:16:00,51.4,49.7,30.04,NNW,341,0.0,0.0,94,0.00,,,0.00,Wunderground v.1.13,2013-03-07 11:16:00,
2013-03-07 03:21:00,51.3,49.6,30.04,NNW,341,0.0,0.0,94,0.00,,,0.00,Wunderground v.1.13,2013-03-07 11:21:00,
2013-03-07 03:31:00,51.4,49.7,30.03,NNW,341,0.0,0.0,94,0.00,,,0.00,Wunderground v.1.13,2013-03-07 11:31:00,
2013-03-07 03:36:00,51.3,49.6,30.03,NNW,341,0.0,0.0,94,0.00,,,0.00,Wunderground v.1.13,2013-03-07 11:36:00,
2013-03-07 03:41:00,51.3,49.6,30.03,NNW,341,0.0,0.0,94,0.00,,,0.00,Wunderground v.1.13,2013-03-07 11:41:00,
2013-03-07 03:46:00,51.3,49.6,30.04,NNW,341,0.0,0.0,94,0.00,,,0.00,Wunderground v.1.13,2013-03-07 11:46:00,
2013-03-07 03:56:00,51.3,49.6,30.03,NNW,341,0.0,0.0,94,0.00,,,0.00,Wunderground v.1.13,2013-03-07 11:56:00,
2013-03-07 04:01:00,51.3,49.6,30.03,NNW,341,0.0,0.0,94,0.00,,,0.00,Wunderground v.1.13,2013-03-07 12:01:00,
2013-03-07 04:06:00,51.3,49.6,30.03,NNW,341,0.0,0.0,94,0.00,,,0.00,Wunderground v.1.13,2013-03-07 12:06:00,
2013-03-07 04:11:00,51.2,49.5,30.03,NNW,341,0.0,0.0,94,0.00,,,0.00,Wunderground v.1.13,2013-03-07 12:11:00,
2013-03-07 04:16:00,51.1,49.4,30.03,NNW,341,0.0,0.0,94,0.00,,,0.00,Wunderground v.1.13,2013-03-07 12:16:00,
2013-03-07 04:21:00,51.1,49.4,30.03,NNW,340,0.0,0.0,94,0.00,,,0.00,Wunderground v.1.13,2013-03-07 12:21:00,
2013-03-07 04:26:00,51.0,49.3,30.03,NNW,340,0.0,0.0,94,0.00,,,0.00,Wunderground v.1.13,2013-03-07 12:26:00,
2013-03-07 04:36:00,50.8,49.1,30.03,NNW,340,0.0,0.0,94,0.00,,,0.00,Wunderground v.1.13,2013-03-07 12:36:00,
2013-03-07 04:41:00,50.7,48.7,30.03,NNW,340,0.0,0.0,93,0.00,,,0.00,Wunderground v.1.13,2013-03-07 12:41:00,
2013-03-07 04:46:00,50.5,48.6,30.03,NNW,340,0.0,0.0,93,0.00,,,0.00,Wunderground v.1.13,2013-03-07 12:46:00,
2013-03-07 04:51:00,50.3,48.4,30.03,NNW,340,0.0,0.0,93,0.00,,,0.00,Wunderground v.1.13,2013-03-07 12:51:00,
2013-03-07 04:56:00,50.1,48.4,30.03,NNW,340,0.0,0.0,94,0.00,,,0.00,Wunderground v.1.13,2013-03-07 12:56:00,
2013-03-07 05:01:00,50.0,48.1,30.03,NNW,340,0.0,0.0,93,0.00,,,0.00,Wunderground v.1.13,2013-03-07 13:01:00,
2013-03-07 05:16:00,49.9,48.0,30.03,NNW,339,0.0,0.0,93,0.00,,,0.00,Wunderground v.1.13,2013-03-07 13:16:00,
2013-03-07 05:21:00,49.9,48.0,30.03,NNW,339,0.0,0.0,93,0.00,,,0.00,Wunderground v.1.13,2013-03-07 13:21:00,
2013-03-07 05:26:00,49.8,47.9,30.04,NNW,339,0.0,0.0,93,0.00,,,0.00,Wunderground v.1.13,2013-03-07 13:26:00,
2013-03-07 05:31:00,49.8,47.9,30.04,NNW,338,0.0,0.0,93,0.00,,,0.00,Wunderground v.1.13,2013-03-07 13:31:00,
2013-03-07 05:36:00,49.8,47.9,30.04,NNW,339,0.0,0.0,93,0.00,,,0.00,Wunderground v.1.13,2013-03-07 13:36:00,
2013-03-07 05:41:00,49.7,48.0,30.03,NNW,339,0.0,0.0,94,0.00,,,0.00,Wunderground v.1.13,2013-03-07 13:41:00,
2013-03-07 05:51:00,49.7,48.0,30.03,NNW,331,0.0,0.0,94,0.00,,,0.00,Wunderground v.1.13,2013-03-07 13:51:00,
2013-03-07 05:56:00,49.7,48.0,30.03,NNW,329,0.0,0.0,94,0.00,,,0.00,Wunderground v.1.13,2013-03-07 13:56:00,
2013-03-07 06:01:00,49.6,47.9,30.03,NW,320,0.0,0.0,94,0.00,,,0.00,Wunderground v.1.13,2013-03-07 14:01:00,
2013-03-07 06:06:00,49.5,47.6,30.03,NW,320,0.0,0.0,93,0.00,,,0.00,Wunderground v.1.13,2013-03-07 14:06:00,
2013-03-07 06:11:00,49.3,47.4,30.03,NW,319,0.0,0.0,93,0.00,,,0.00,Wunderground v.1.13,2013-03-07 14:11:00,
2013-03-07 06:16:00,49.3,47.4,30.03,NW,318,0.0,0.0,93,0.00,,,0.00,Wunderground v.1.13,2013-03-07 14:16:00,
2013-03-07 06:21:00,49.4,48.9,30.03,NW,317,0.0,0.0,98,0.00,,,0.00,Wunderground v.1.13,2013-03-07 14:21:00,
2013-03-07 06:31:00,49.4,47.5,30.03,NW,317,0.0,0.0,93,0.00,,,0.00,Wunderground v.1.13,2013-03-07 14:31:00,
2013-03-07 06:41:00,49.4,47.7,30.04,NW,317,0.0,0.0,94,0.00,,,0.00,Wunderground v.1.13,2013-03-07 14:41:00,
2013-03-07 06:46:00,49.4,47.5,30.04,NW,317,0.0,0.0,93,0.00,,,0.00,Wunderground v.1.13,2013-03-07 14:46:00,
2013-03-07 06:51:00,49.5,47.8,30.04,NW,317,0.0,0.0,94,0.00,,,0.00,Wunderground v.1.13,2013-03-07 14:51:00,
2013-03-07 06:56:00,49.6,47.7,30.04,NW,317,0.0,0.0,93,0.00,,,0.00,Wunderground v.1.13,2013-03-07 14:56:00,
2013-03-07 07:01:00,49.5,47.6,30.04,NW,317,0.0,0.0,93,0.00,,,0.00,Wunderground v.1.13,2013-03-07 15:01:00,
2013-03-07 07:11:00,49.7,47.8,30.04,NW,317,0.0,0.0,93,0.00,,,0.00,Wunderground v.1.13,2013-03-07 15:11:00,
2013-03-07 07:21:00,49.9,48.0,30.05,NW,317,0.0,0.0,93,0.00,,,0.00,Wunderground v.1.13,2013-03-07 15:21:00,
2013-03-07 07:26:00,50.0,48.1,30.05,NW,317,0.0,0.0,93,0.00,,,0.00,Wunderground v.1.13,2013-03-07 15:26:00,
2013-03-07 07:31:00,50.2,48.3,30.05,NW,317,0.0,0.0,93,0.00,,,0.00,Wunderground v.1.13,2013-03-07 15:31:00,
2013-03-07 07:41:00,50.5,48.6,30.05,NW,317,0.0,0.0,93,0.00,,,0.00,Wunderground v.1.13,2013-03-07 15:41:00,
2013-03-07 07:46:00,50.7,48.7,30.05,NW,317,0.0,0.0,93,0.00,,,0.00,Wunderground v.1.13,2013-03-07 15:46:00,
2013-03-07 07:51:00,50.9,48.9,30.05,NW,316,0.0,0.0,93,0.00,,,0.00,Wunderground v.1.13,2013-03-07 15:51:00,
2013-03-07 08:01:00,51.7,49.7,30.05,NW,316,0.0,0.0,93,0.00,,,0.00,Wunderground v.1.13,2013-03-07 16:01:00,
2013-03-07 08:06:00,51.9,49.9,30.05,NW,316,0.0,0.0,93,0.00,,,0.00,Wunderground v.1.13,2013-03-07 16:06:00,
2013-03-07 08:11:00,52.3,50.3,30.06,NW,315,0.0,0.0,93,0.00,,,0.00,Wunderground v.1.13,2013-03-07 16:11:00,
2013-03-07 08:16:00,52.6,50.3,30.06,NW,315,0.0,0.0,92,0.00,,,0.00,Wunderground v.1.13,2013-03-07 16:16:00,
2013-03-07 08:21:00,53.1,50.8,30.05,NW,315,0.0,0.0,92,0.00,,,0.00,Wunderground v.1.13,2013-03-07 16:21:00,
2013-03-07 08:26:00,53.1,50.5,30.05,NW,314,0.0,0.0,91,0.00,,,0.00,Wunderground v.1.13,2013-03-07 16:26:00,
2013-03-07 08:31:00,53.6,51.0,30.05,NW,313,0.0,0.0,91,0.00,,,0.00,Wunderground v.1.13,2013-03-07 16:31:00,
2013-03-07 08:41:00,55.0,52.1,30.05,NW,313,0.0,0.0,90,0.00,,,0.00,Wunderground v.1.13,2013-03-07 16:41:00,
2013-03-07 08:46:00,55.2,51.7,30.05,NW,313,0.0,0.0,88,0.00,,,0.00,Wunderground v.1.13,2013-03-07 16:46:00,
2013-03-07 08:51:00,55.5,51.7,30.05,NW,313,0.0,0.0,87,0.00,,,0.00,Wunderground v.1.13,2013-03-07 16:51:00,
2013-03-07 09:01:00,55.8,51.4,30.05,NW,313,0.0,0.0,85,0.00,,,0.00,Wunderground v.1.13,2013-03-07 17:01:00,
2013-03-07 09:06:00,56.0,51.6,30.05,NW,313,0.0,0.0,85,0.00,,,0.00,Wunderground v.1.13,2013-03-07 17:06:00,
2013-03-07 09:11:00,56.3,51.5,30.04,NW,313,0.0,0.0,84,0.00,,,0.00,Wunderground v.1.13,2013-03-07 17:11:00,
2013-03-07 09:16:00,57.4,52.6,30.04,NW,313,0.0,0.0,84,0.00,,,0.00,Wunderground v.1.13,2013-03-07 17:16:00,
2013-03-07 09:21:00,57.9,52.1,30.04,NW,313,0.0,0.0,81,0.00,,,0.00,Wunderground v.1.13,2013-03-07 17:21:00,
2013-03-07 09:31:00,57.1,50.3,30.04,NW,313,0.0,0.0,78,0.00,,,0.00,Wunderground v.1.13,2013-03-07 17:31:00,
2013-03-07 09:36:00,57.7,51.2,30.04,NW,313,0.0,0.0,79,0.00,,,0.00,Wunderground v.1.13,2013-03-07 17:36:00,
2013-03-07 09:46:00,58.3,50.4,30.03,NW,319,1.0,1.0,75,0.00,,,0.00,Wunderground v.1.13,2013-03-07 17:46:00,
2013-03-07 09:51:00,58.1,49.5,30.03,NW,319,1.0,1.0,73,0.00,,,0.00,Wunderground v.1.13,2013-03-07 17:51:00,
2013-03-07 10:01:00,58.4,50.9,30.04,NNW,336,1.0,1.0,76,0.00,,,0.00,Wunderground v.1.13,2013-03-07 18:01:00,
2013-03-07 10:06:00,58.6,51.4,30.03,NNW,340,1.0,1.0,77,0.00,,,0.00,Wunderground v.1.13,2013-03-07 18:06:00,
2013-03-07 10:11:00,58.7,51.5,30.04,NNW,338,1.0,1.0,77,0.00,,,0.00,Wunderground v.1.13,2013-03-07 18:11:00,
2013-03-07 10:16:00,58.1,51.6,30.04,North,350,1.0,1.0,79,0.00,,,0.00,Wunderground v.1.13,2013-03-07 18:16:00,
2013-03-07 10:21:00,58.7,52.2,30.04,NNW,336,1.0,1.0,79,0.00,,,0.00,Wunderground v.1.13,2013-03-07 18:21:00,
2013-03-07 10:26:00,58.4,52.3,30.05,NNW,331,1.0,1.0,80,0.00,,,0.00,Wunderground v.1.13,2013-03-07 18:26:00,
2013-03-07 10:36:00,57.7,51.9,30.05,NNW,346,2.0,3.0,81,0.00,,,0.00,Wunderground v.1.13,2013-03-07 18:36:00,
2013-03-07 10:46:00,57.3,51.9,30.05,NNW,336,3.0,3.0,82,0.00,,,0.00,Wunderground v.1.13,2013-03-07 18:46:00,
2013-03-07 10:51:00,57.6,52.1,30.05,NW,323,3.0,3.0,82,0.00,,,0.00,Wunderground v.1.13,2013-03-07 18:51:00,
2013-03-07 10:56:00,57.3,51.5,30.05,NNW,342,2.0,2.0,81,0.00,,,0.00,Wunderground v.1.13,2013-03-07 18:56:00,
2013-03-07 11:06:00,57.1,51.3,30.05,NW,320,2.0,2.0,81,0.00,,,0.00,Wunderground v.1.13,2013-03-07 19:06:00,
2013-03-07 11:11:00,57.0,51.6,30.05,NNW,337,3.0,5.0,82,0.00,,,0.00,Wunderground v.1.13,2013-03-07 19:11:00,
2013-03-07 11:16:00,57.1,51.3,30.04,NNW,336,2.0,2.0,81,0.00,,,0.00,Wunderground v.1.13,2013-03-07 19:16:00,
2013-03-07 11:21:00,57.6,52.1,30.04,North,9,2.0,2.0,82,0.00,,,0.00,Wunderground v.1.13,2013-03-07 19:21:00,
2013-03-07 11:26:00,58.3,51.8,30.04,NNE,22,0.0,0.0,79,0.00,,,0.00,Wunderground v.1.13,2013-03-07 19:26:00,
2013-03-07 11:31:00,57.8,51.0,30.04,North,355,0.0,0.0,78,0.00,,,0.00,Wunderground v.1.13,2013-03-07 19:31:00,
2013-03-07 11:41:00,57.0,50.9,30.04,NW,325,1.0,1.0,80,0.00,,,0.00,Wunderground v.1.13,2013-03-07 19:41:00,
2013-03-07 11:46:00,57.4,51.3,30.04,NNW,342,2.0,7.0,80,0.00,,,0.00,Wunderground v.1.13,2013-03-07 19:46:00,
2013-03-07 11:51:00,57.4,50.9,30.04,NNW,341,3.0,5.0,79,0.00,,,0.00,Wunderground v.1.13,2013-03-07 19:51:00,
2013-03-07 11:56:00,57.8,51.3,30.04,North,350,4.0,4.0,79,0.00,,,0.00,Wunderground v.1.13,2013-03-07 19:56:00,
2013-03-07 12:06:00,58.0,51.2,30.04,NNW,337,2.0,2.0,78,0.00,,,0.00,Wunderground v.1.13,2013-03-07 20:06:00,
2013-03-07 12:11:00,57.7,50.9,30.03,NNW,346,2.0,2.0,78,0.00,,,0.00,Wunderground v.1.13,2013-03-07 20:11:00,
2013-03-07 12:16:00,57.9,50.7,30.03,NNW,345,1.0,1.0,77,0.00,,,0.00,Wunderground v.1.13,2013-03-07 20:16:00,
2013-03-07 12:21:00,57.6,50.4,30.03,North,355,1.0,1.0,77,0.00,,,0.00,Wunderground v.1.13,2013-03-07 20:21:00,
2013-03-07 12:26:00,57.5,50.7,30.02,North,350,1.0,1.0,78,0.00,,,0.00,Wunderground v.1.13,2013-03-07 20:26:00,
2013-03-07 12:31:00,57.8,51.0,30.02,NNW,329,1.0,1.0,78,0.00,,,0.00,Wunderground v.1.13,2013-03-07 20:31:00,
2013-03-07 12:36:00,58.4,51.9,30.02,NNW,333,1.0,1.0,79,0.00,,,0.00,Wunderground v.1.13,2013-03-07 20:36:00,
2013-03-07 12:46:00,58.8,51.6,30.02,NNW,337,1.0,1.0,77,0.00,,,0.00,Wunderground v.1.13,2013-03-07 20:46:00,
2013-03-07 12:51:00,58.8,51.2,30.02,NW,325,1.0,7.0,76,0.00,,,0.00,Wunderground v.1.13,2013-03-07 20:51:00,
2013-03-07 12:56:00,58.5,51.3,30.02,North,355,2.0,3.0,77,0.00,,,0.00,Wunderground v.1.13,2013-03-07 20:56:00,
2013-03-07 13:01:00,57.6,50.4,30.02,North,350,2.0,2.0,77,0.00,,,0.00,Wunderground v.1.13,2013-03-07 21:01:00,
2013-03-07 13:06:00,57.9,50.7,30.02,NNW,329,2.0,9.0,77,0.00,,,0.00,Wunderground v.1.13,2013-03-07 21:06:00,
2013-03-07 13:11:00,57.6,50.8,30.01,NNW,337,2.0,2.0,78,0.00,,,0.00,Wunderground v.1.13,2013-03-07 21:11:00,
2013-03-07 13:21:00,58.6,50.7,30.01,NW,319,1.0,1.0,75,0.00,,,0.00,Wunderground v.1.13,2013-03-07 21:21:00,
2013-03-07 13:26:00,58.1,49.9,30.01,NNW,327,0.0,0.0,74,0.00,,,0.00,Wunderground v.1.13,2013-03-07 21:26:00,
2013-03-07 13:31:00,58.0,50.5,30.00,NNW,337,0.0,0.0,76,0.00,,,0.00,Wunderground v.1.13,2013-03-07 21:31:00,
2013-03-07 13:36:00,57.7,50.2,30.00,NNW,338,0.0,0.0,76,0.00,,,0.00,Wunderground v.1.13,2013-03-07 21:36:00,
2013-03-07 13:41:00,57.8,51.0,30.00,NNW,336,1.0,1.0,78,0.00,,,0.00,Wunderground v.1.13,2013-03-07 21:41:00,
2013-03-07 13:46:00,58.8,50.9,29.99,NNW,345,1.0,1.0,75,0.00,,,0.00,Wunderground v.1.13,2013-03-07 21:46:00,
2013-03-07 13:56:00,57.9,50.0,29.99,NNW,334,0.0,0.0,75,0.00,,,0.00,Wunderground v.1.13,2013-03-07 21:56:00,
2013-03-07 14:01:00,57.8,50.3,29.99,NNW,336,0.0,0.0,76,0.00,,,0.00,Wunderground v.1.13,2013-03-07 22:01:00,
2013-03-07 14:06:00,57.9,50.7,29.99,NNW,333,0.0,0.0,77,0.00,,,0.00,Wunderground v.1.13,2013-03-07 22:06:00,
2013-03-07 14:11:00,58.1,50.6,29.99,NNW,336,1.0,1.0,76,0.00,,,0.00,Wunderground v.1.13,2013-03-07 22:11:00,
2013-03-07 14:16:00,58.1,50.2,29.99,North,355,1.0,5.0,75,0.00,,,0.00,Wunderground v.1.13,2013-03-07 22:16:00,
2013-03-07 14:26:00,59.7,51.0,29.99,NNW,337,0.0,0.0,73,0.00,,,0.00,Wunderground v.1.13,2013-03-07 22:26:00,
2013-03-07 14:36:00,58.7,50.8,29.99,NNW,340,0.0,0.0,75,0.00,,,0.00,Wunderground v.1.13,2013-03-07 22:36:00,
2013-03-07 14:41:00,58.9,51.0,29.99,NNW,339,0.0,0.0,75,0.00,,,0.00,Wunderground v.1.13,2013-03-07 22:41:00,
2013-03-07 14:46:00,58.3,50.4,29.99,NNW,331,1.0,1.0,75,0.00,,,0.00,Wunderground v.1.13,2013-03-07 22:46:00,
2013-03-07 14:51:00,58.7,50.8,29.99,NNW,335,1.0,2.0,75,0.00,,,0.00,Wunderground v.1.13,2013-03-07 22:51:00,
2013-03-07 14:56:00,58.1,49.9,29.99,NNW,341,0.0,0.0,74,0.00,,,0.00,Wunderground v.1.13,2013-03-07 22:56:00,
2013-03-07 15:01:00,58.3,50.4,29.98,NNW,327,0.0,3.0,75,0.00,,,0.00,Wunderground v.1.13,2013-03-07 23:01:00,
2013-03-07 15:11:00,58.5,50.2,29.98,NW,318,1.0,1.0,74,0.00,,,0.00,Wunderground v.1.13,2013-03-07 23:11:00,
2013-03-07 15:16:00,58.4,50.1,29.98,NNW,328,0.0,0.0,74,0.00,,,0.00,Wunderground v.1.13,2013-03-07 23:16:00,
2013-03-07 15:21:00,57.9,49.3,29.98,NW,317,1.0,1.0,73,0.00,,,0.00,Wunderground v.1.13,2013-03-07 23:21:00,
2013-03-07 15:26:00,58.0,50.1,29.98,NW,323,1.0,1.0,75,0.00,,,0.00,Wunderground v.1.13,2013-03-07 23:26:00,
2013-03-07 15:31:00,57.2,49.0,29.98,NW,322,1.0,1.0,74,0.00,,,0.00,Wunderground v.1.13,2013-03-07 23:31:00,
2013-03-07 15:41:00,57.9,50.0,29.98,NNW,329,0.0,0.0,75,0.00,,,0.00,Wunderground v.1.13,2013-03-07 23:41:00,
2013-03-07 15:46:00,58.8,49.8,29.98,NNW,330,0.0,0.0,72,0.00,,,0.00,Wunderground v.1.13,2013-03-07 23:46:00,
2013-03-07 15:51:00,57.8,49.2,29.98,NNW,330,0.0,0.0,73,0.00,,,0.00,Wunderground v.1.13,2013-03-07 23:51:00,
2013-03-07 15:56:00,57.5,49.3,29.98,NNW,331,0.0,0.0,74,0.00,,,0.00,Wunderground v.1.13,2013-03-07 23:56:00,
2013-03-07 16:01:00,57.2,49.0,29.98,NNW,331,0.0,1.0,74,0.00,,,0.00,Wunderground v.1.13,2013-03-08 00:01:00,
2013-03-07 16:11:00,56.9,49.1,29.98,NNW,329,0.0,0.0,75,0.00,,,0.00,Wunderground v.1.13,2013-03-08 00:11:00,
2013-03-07 16:16:00,57.0,49.2,29.97,NNW,329,0.0,0.0,75,0.00,,,0.00,Wunderground v.1.13,2013-03-08 00:16:00,
2013-03-07 16:21:00,56.8,49.0,29.98,NNW,329,0.0,0.0,75,0.00,,,0.00,Wunderground v.1.13,2013-03-08 00:21:00,
2013-03-07 16:26:00,56.9,49.1,29.98,NNW,329,0.0,0.0,75,0.00,,,0.00,Wunderground v.1.13,2013-03-08 00:26:00,
2013-03-07 16:31:00,56.5,49.0,29.98,NNW,331,0.0,0.0,76,0.00,,,0.00,Wunderground v.1.13,2013-03-08 00:31:00,
2013-03-07 16:41:00,56.4,48.9,29.98,NNW,334,0.0,0.0,76,0.00,,,0.00,Wunderground v.1.13,2013-03-08 00:41:00,
2013-03-07 16:46:00,56.5,49.4,29.98,NNW,335,0.0,0.0,77,0.00,,,0.00,Wunderground v.1.13,2013-03-08 00:46:00,
2013-03-07 16:51:00,56.5,49.0,29.98,NNW,337,0.0,0.0,76,0.00,,,0.00,Wunderground v.1.13,2013-03-08 00:51:00,
2013-03-07 16:56:00,56.5,49.4,29.98,NNW,338,0.0,0.0,77,0.00,,,0.00,Wunderground v.1.13,2013-03-08 00:56:00,
2013-03-07 17:01:00,56.3,49.5,29.98,NNW,332,0.0,0.0,78,0.00,,,0.00,Wunderground v.1.13,2013-03-08 01:01:00,
2013-03-07 17:11:00,56.4,50.0,29.98,NNW,332,0.0,0.0,79,0.00,,,0.00,Wunderground v.1.13,2013-03-08 01:11:00,
2013-03-07 17:16:00,56.4,50.0,29.98,NNW,332,0.0,0.0,79,0.00,,,0.00,Wunderground v.1.13,2013-03-08 01:16:00,
2013-03-07 17:21:00,56.2,49.8,29.97,NNW,332,0.0,0.0,79,0.00,,,0.00,Wunderground v.1.13,2013-03-08 01:21:00,
2013-03-07 17:26:00,56.2,49.8,29.98,NNW,331,0.0,0.0,79,0.00,,,0.00,Wunderground v.1.13,2013-03-08 01:26:00,
2013-03-07 17:31:00,56.2,49.4,29.97,NNW,332,0.0,0.0,78,0.00,,,0.00,Wunderground v.1.13,2013-03-08 01:31:00,
2013-03-07 17:41:00,56.1,49.3,29.97,NNW,331,0.0,0.0,78,0.00,,,0.00,Wunderground v.1.13,2013-03-08 01:41:00,
2013-03-07 17:46:00,56.1,49.3,29.97,NNW,332,0.0,0.0,78,0.00,,,0.00,Wunderground v.1.13,2013-03-08 01:46:00,
2013-03-07 17:51:00,56.1,49.3,29.97,NNW,332,0.0,0.0,78,0.00,,,0.00,Wunderground v.1.13,2013-03-08 01:51:00,
2013-03-07 18:01:00,56.0,49.2,29.97,NNW,332,0.0,0.0,78,0.00,,,0.00,Wunderground v.1.13,2013-03-08 02:01:00,
2013-03-07 18:06:00,55.8,48.7,29.97,NNW,331,0.0,0.0,77,0.00,,,0.00,Wunderground v.1.13,2013-03-08 02:06:00,
2013-03-07 18:11:00,55.8,49.0,29.97,NNW,333,0.0,2.0,78,0.00,,,0.00,Wunderground v.1.13,2013-03-08 02:11:00,
2013-03-07 18:16:00,55.7,49.3,29.97,NNW,333,0.0,0.0,79,0.00,,,0.00,Wunderground v.1.13,2013-03-08 02:16:00,
2013-03-07 18:21:00,55.5,49.8,29.97,NNW,333,0.0,0.0,81,0.00,,,0.01,Wunderground v.1.13,2013-03-08 02:21:00,
2013-03-07 18:31:00,54.7,49.6,29.96,NNW,333,0.0,0.0,83,0.00,,,0.01,Wunderground v.1.13,2013-03-08 02:31:00,
2013-03-07 18:36:00,54.5,50.1,29.96,NNW,333,0.0,0.0,85,0.00,,,0.01,Wunderground v.1.13,2013-03-08 02:36:00,
2013-03-07 18:41:00,54.3,50.2,29.96,NNW,333,0.0,0.0,86,0.00,,,0.02,Wunderground v.1.13,2013-03-08 02:41:00,
2013-03-07 18:46:00,54.0,49.9,29.96,NNW,333,0.0,0.0,86,0.09,,,0.03,Wunderground v.1.13,2013-03-08 02:46:00,
2013-03-07 18:51:00,53.8,50.0,29.96,NNW,333,0.0,0.0,87,0.09,,,0.03,Wunderground v.1.13,2013-03-08 02:51:00,
2013-03-07 19:01:00,53.7,50.5,29.96,NNW,331,0.0,0.0,89,0.23,,,0.05,Wunderground v.1.13,2013-03-08 03:01:00,
2013-03-07 19:06:00,53.6,50.4,29.96,NNW,330,0.0,0.0,89,0.19,,,0.06,Wunderground v.1.13,2013-03-08 03:06:00,
2013-03-07 19:11:00,53.6,50.7,29.96,NNW,330,0.0,0.0,90,0.12,,,0.07,Wunderground v.1.13,2013-03-08 03:11:00,
2013-03-07 19:16:00,53.2,50.3,29.96,NNW,331,0.0,0.0,90,0.28,,,0.09,Wunderground v.1.13,2013-03-08 03:16:00,
2013-03-07 19:26:00,52.6,49.8,29.96,NNW,331,0.0,0.0,90,0.05,,,0.09,Wunderground v.1.13,2013-03-08 03:26:00,
2013-03-07 19:31:00,52.2,49.1,29.96,SSW,199,0.0,0.0,89,0.04,,,0.10,Wunderground v.1.13,2013-03-08 03:31:00,
2013-03-07 19:36:00,51.9,48.8,29.95,SSW,192,1.0,1.0,89,0.11,,,0.11,Wunderground v.1.13,2013-03-08 03:36:00,
2013-03-07 19:46:00,52.0,48.9,29.96,SSW,192,0.0,0.0,89,0.06,,,0.12,Wunderground v.1.13,2013-03-08 03:46:00,
2013-03-07 19:51:00,51.9,48.8,29.95,South,182,0.0,0.0,89,0.13,,,0.13,Wunderground v.1.13,2013-03-08 03:51:00,
2013-03-07 19:56:00,51.9,48.8,29.95,South,184,0.0,0.0,89,0.06,,,0.14,Wunderground v.1.13,2013-03-08 03:56:00,
2013-03-07 20:01:00,52.0,48.9,29.95,South,184,0.0,0.0,89,0.11,,,0.14,Wunderground v.1.13,2013-03-08 04:01:00,
2013-03-07 20:06:00,52.0,49.2,29.95,South,186,0.0,0.0,90,0.11,,,0.15,Wunderground v.1.13,2013-03-08 04:06:00,
2013-03-07 20:11:00,52.0,49.2,29.95,South,186,1.0,1.0,90,0.06,,,0.15,Wunderground v.1.13,2013-03-08 04:11:00,
2013-03-07 20:16:00,51.9,49.1,29.95,South,184,1.0,1.0,90,0.04,,,0.15,Wunderground v.1.13,2013-03-08 04:16:00,
2013-03-07 20:21:00,51.9,49.1,29.95,South,184,0.0,0.0,90,0.04,,,0.16,Wunderground v.1.13,2013-03-08 04:21:00,
2013-03-07 20:26:00,51.8,49.0,29.95,South,185,0.0,0.0,90,0.09,,,0.17,Wunderground v.1.13,2013-03-08 04:26:00,
2013-03-07 20:31:00,51.8,49.0,29.95,South,185,0.0,0.0,90,0.07,,,0.17,Wunderground v.1.13,2013-03-08 04:31:00,
2013-03-07 20:36:00,51.7,49.2,29.95,South,185,0.0,0.0,91,0.05,,,0.17,Wunderground v.1.13,2013-03-08 04:36:00,
2013-03-07 20:46:00,51.5,49.0,29.95,South,184,0.0,0.0,91,0.04,,,0.18,Wunderground v.1.13,2013-03-08 04:46:00,
2013-03-07 20:51:00,51.5,49.0,29.95,South,185,0.0,0.0,91,0.04,,,0.18,Wunderground v.1.13,2013-03-08 04:51:00,
2013-03-07 20:56:00,51.4,48.9,29.95,South,184,0.0,0.0,91,0.04,,,0.19,Wunderground v.1.13,2013-03-08 04:56:00,
2013-03-07 21:01:00,51.4,48.9,29.95,South,184,0.0,0.0,91,0.04,,,0.19,Wunderground v.1.13,2013-03-08 05:01:00,
2013-03-07 21:06:00,51.5,49.0,29.95,South,184,0.0,0.0,91,0.04,,,0.19,Wunderground v.1.13,2013-03-08 05:06:00,
2013-03-07 21:11:00,51.4,48.9,29.94,South,183,1.0,4.0,91,0.00,,,0.19,Wunderground v.1.13,2013-03-08 05:11:00,
2013-03-07 21:21:00,51.1,48.6,29.94,South,183,4.0,4.0,91,0.00,,,0.19,Wunderground v.1.13,2013-03-08 05:21:00,
2013-03-07 21:26:00,51.0,48.5,29.94,South,186,4.0,7.0,91,0.00,,,0.19,Wunderground v.1.13,2013-03-08 05:26:00,
2013-03-07 21:31:00,50.8,48.3,29.94,South,180,4.0,4.0,91,0.00,,,0.19,Wunderground v.1.13,2013-03-08 05:31:00,
2013-03-07 21:41:00,50.6,48.1,29.93,South,180,2.0,2.0,91,0.00,,,0.20,Wunderground v.1.13,2013-03-08 05:41:00,
2013-03-07 21:46:00,50.4,47.9,29.93,South,184,2.0,2.0,91,0.00,,,0.20,Wunderground v.1.13,2013-03-08 05:46:00,
2013-03-07 21:51:00,50.4,47.9,29.92,South,190,2.0,2.0,91,0.07,,,0.21,Wunderground v.1.13,2013-03-08 05:51:00,
2013-03-07 22:01:00,50.2,48.0,29.92,South,183,1.0,1.0,92,0.04,,,0.21,Wunderground v.1.13,2013-03-08 06:01:00,
2013-03-07 22:06:00,50.2,48.0,29.92,South,184,1.0,1.0,92,0.00,,,0.21,Wunderground v.1.13,2013-03-08 06:06:00,
2013-03-07 22:11:00,50.0,47.8,29.92,South,179,1.0,1.0,92,0.00,,,0.21,Wunderground v.1.13,2013-03-08 06:11:00,
2013-03-07 22:16:00,50.0,47.8,29.92,South,182,1.0,2.0,92,0.00,,,0.21,Wunderground v.1.13,2013-03-08 06:16:00,
2013-03-07 22:21:00,49.9,47.7,29.92,South,186,1.0,1.0,92,0.00,,,0.21,Wunderground v.1.13,2013-03-08 06:21:00,
2013-03-07 22:26:00,49.9,47.7,29.92,South,185,1.0,1.0,92,0.00,,,0.21,Wunderground v.1.13,2013-03-08 06:26:00,
2013-03-07 22:31:00,50.0,47.8,29.92,South,185,0.0,0.0,92,0.00,,,0.21,Wunderground v.1.13,2013-03-08 06:31:00,
2013-03-07 22:41:00,49.9,47.7,29.92,South,189,0.0,0.0,92,0.12,,,0.23,Wunderground v.1.13,2013-03-08 06:41:00,
2013-03-07 22:46:00,49.8,47.6,29.91,South,190,0.0,0.0,92,0.24,,,0.25,Wunderground v.1.13,2013-03-08 06:46:00,
2013-03-07 22:51:00,49.8,47.6,29.91,South,188,0.0,0.0,92,0.09,,,0.25,Wunderground v.1.13,2013-03-08 06:51:00,
2013-03-07 22:56:00,49.8,47.6,29.90,South,185,0.0,0.0,92,0.05,,,0.26,Wunderground v.1.13,2013-03-08 06:56:00,
2013-03-07 23:01:00,49.9,47.7,29.90,South,184,0.0,0.0,92,0.22,,,0.27,Wunderground v.1.13,2013-03-08 07:01:00,
2013-03-07 23:11:00,49.8,47.9,29.90,South,184,1.0,1.0,93,0.11,,,0.29,Wunderground v.1.13,2013-03-08 07:11:00,
2013-03-07 23:16:00,49.7,47.5,29.90,South,176,0.0,0.0,92,0.23,,,0.31,Wunderground v.1.13,2013-03-08 07:16:00,
2013-03-07 23:21:00,49.6,47.7,29.90,South,184,1.0,3.0,93,0.27,,,0.33,Wunderground v.1.13,2013-03-08 07:21:00,
2013-03-07 23:26:00,49.5,47.6,29.89,South,179,1.0,1.0,93,0.33,,,0.34,Wunderground v.1.13,2013-03-08 07:26:00,
2013-03-07 23:31:00,49.5,47.6,29.89,South,184,1.0,1.0,93,0.30,,,0.36,Wunderground v.1.13,2013-03-08 07:31:00,
2013-03-07 23:36:00,49.4,47.5,29.89,South,189,1.0,4.0,93,0.24,,,0.38,Wunderground v.1.13,2013-03-08 07:36:00,
2013-03-07 23:41:00,49.3,47.4,29.89,South,187,1.0,1.0,93,0.22,,,0.40,Wunderground v.1.13,2013-03-08 07:41:00,
2013-03-07 23:46:00,49.3,47.4,29.89,South,187,0.0,0.0,93,0.20,,,0.42,Wunderground v.1.13,2013-03-08 07:46:00,
2013-03-07 23:51:00,49.3,47.4,29.90,South,187,0.0,0.0,93,0.58,,,0.46,Wunderground v.1.13,2013-03-08 07:51:00,
2013-03-07 23:56:00,49.1,47.2,29.89,South,188,0.0,0.0,93,0.42,,,0.48,Wunderground v.1.13,2013-03-08 07:56:00,